www.pogodaiklimat.ru

Погода и климат >> Архив погоды >> Новая Зеландия >> Гисборн


ПОГОДА в Гисборне

  • Прогноз погоды в Гисборне
  • Монитор погоды в Гисборне

АРХИВ ПОГОДЫ в Гисборне

Время (UTC), дата Ветер
(напр.,м/с)
 
Видим.   Явления Облачность Т
(С)
Тd
(С)
f
(%)
Тe
(С)
Тes
(С)
Комфортность P
(гПа)
Po
(гПа)
Тmin
(С)
Tmax
(С)
R
(мм)
R24
(мм)
S
(см)
09 12.08 СЗ 6 20 км н/о +12.0 +6.0 67 +10 +10 993.4 992.9
12 12.08 СЗ 6 20 км н/о +11.3 +6.4 72 +9 +9 993.1 992.6 +17.1
15 12.08 СЗ 5 20 км н/о +12.1 +5.7 65 +10 +10 993.4 992.9
18 12.08 З 3 20 км н/о +10.6 +6.1 74 +9 +9 996.1 995.6
21 12.08 З 4 20 км н/о +13.0 +6.3 64 +11 +11 999.3 998.8
00 13.08 З 9 10 км н/о +16.5 +5.2 47 +15 +15 999.6 999.1 +7.3 0.4
03 13.08 З 11 20 км н/о +16.0 +2.4 40 +14 +14 998.9 998.4
06 13.08 СЗ 4 20 км н/о +12.0 +2.3 51 +10 +10 999.5 999.0
09 13.08 СЗ 7 20 км н/о +10.5 +3.5 62 +7 +7 1000.2 999.7
12 13.08 С 4 20 км н/о +9.9 +4.1 67 +8 +8 1001.3 1000.8 +16.9
15 13.08 СЗ 3 20 км н/о +9.2 +3.8 69 +7 +7 1002.0 1001.5
18 13.08 С 3 20 км н/о +9.4 +3.0 64 +8 +8 1003.8 1003.3
21 13.08 СЗ 1 20 км н/о +12.4 +4.8 60 +13 +13 1007.3 1006.8
00 14.08 ЮВ 4 10 км н/о +13.7 +8.7 72 +12 +12 1009.1 1008.6 +7.1
03 14.08 Ю 6 20 км н/о +11.9 +7.7 75 +9 +9 1009.6 1009.1
06 14.08 Ю 4 10 км н/о +10.2 +7.2 82 +8 +8 1012.7 1012.2
09 14.08 Ю 4 10 км н/о +9.6 +6.8 83 +7 +7 1015.0 1014.5
12 14.08 З 1 10 км н/о +8.5 +6.8 89 +8 +8 1016.2 1015.7 +15.5
15 14.08 СЗ 2 20 км н/о +8.2 +7.1 93 +7 +7 1017.0 1016.5
18 14.08 СЗ 2 10 км н/о +2.8 +2.1 95 -1 -1 1017.9 1017.4
21 14.08 СЗ 3 10 км н/о +9.1 +4.9 75 +7 +7 1019.0 1018.5
00 15.08 Ю 2 20 км н/о +12.1 +3.5 56 +12 +12 1018.2 1017.7 +2.6
03 15.08 ЮВ 3 20 км н/о +12.1 +4.0 58 +11 +11 1016.9 1016.4
06 15.08 В 1 4000 м н/о +9.3 +3.3 66 +9 +9 1017.6 1017.1
09 15.08 СВ 1 4000 м н/о +3.5 +2.5 93 +3 +3 1017.8 1017.3
12 15.08 СЗ 2 10 км н/о +2.4 +2.0 97 -0 -0 1017.3 1016.8 +12.6
15 15.08 СЗ 1 4000 м н/о +1.1 +0.9 99 -1 -1 1016.0 1015.5
18 15.08 СЗ 3 20 км н/о +1.9 +1.8 99 -2 -2 1014.8 1014.3
21 15.08 СЗ 3 20 км н/о +8.7 +4.8 76 +7 +7 1015.0 1014.5
00 16.08 СЗ 6 20 км н/о +15.0 +5.6 53 +14 +14 1012.5 1012.0 +0.1
03 16.08 СЗ 7 20 км н/о +16.0 +5.1 48 +15 +15 1010.0 1009.5
06 16.08 СЗ 5 20 км н/о +12.2 +5.9 65 +10 +10 1010.4 1009.9
09 16.08 СЗ 3 20 км н/о +10.0 +5.1 72 +8 +8 1011.4 1010.9
12 16.08 СЗ 4 20 км н/о +9.6 +4.2 69 +7 +7 1011.1 1010.6 +16.2
15 16.08 С 3 20 км н/о +9.4 +4.3 70 +7 +7 1009.8 1009.3
18 16.08 СЗ 5 20 км н/о +9.6 +4.8 72 +7 +7 1009.4 1008.9
21 16.08 СЗ 5 20 км н/о +12.5 +5.6 63 +11 +11 1010.1 1009.6
00 17.08 СЗ 9 20 км н/о +16.5 +6.1 50 +15 +15 1008.7 1008.2 +8.7
03 17.08 СЗ 8 20 км н/о +14.7 +7.2 61 +13 +13 1007.2 1006.7
06 17.08 СЗ 3 20 км н/о +13.9 +8.0 68 +13 +13 1008.2 1007.7
09 17.08 Ю 4 20 км н/о +10.9 +8.9 87 +8 +8 1011.4 1010.9
12 17.08 З 3 10 км н/о +8.2 +6.6 90 +5 +5 1014.7 1014.2 +16.9 2
15 17.08 ЮЗ 3 10 км н/о +8.2 +6.4 88 +5 +5 1016.4 1015.9
18 17.08 ЮЗ 4 10 км н/о +8.5 +4.3 75 +5 +5 1018.5 1018.0 3
21 17.08 Ю 4 10 км н/о +8.9 +4.1 72 +6 +6 1021.5 1021.0
00 18.08 Ю 5 20 км н/о +10.5 +3.3 61 +8 +8 1022.8 1022.3 +7.2 7
03 18.08 Ю 6 20 км н/о +9.4 +3.0 64 +6 +6 1023.0 1022.5
06 18.08 Ю 6 20 км н/о +8.9 +1.6 60 +5 +5 1024.4 1023.9
09 18.08 ЮВ 4 20 км н/о +9.2 -0.5 51 +7 +7 1025.9 1025.4
12 18.08 ЮВ 4 10 км н/о +9.2 +0.2 53 +7 +7 1026.6 1026.1 +11.5
15 18.08 ЮВ 2 20 км н/о +8.1 +2.3 67 +7 +7 1026.4 1025.9
18 18.08 С 2 20 км н/о +4.2 +2.6 89 +1 +1 1026.8 1026.3
21 18.08 С 2 20 км н/о +6.3 +4.0 85 +4 +4 1027.5 1027.0
00 19.08 Ю 3 20 км н/о +10.5 +4.7 67 +9 +9 1027.0 1026.5 +3.4
03 19.08 В 3 20 км н/о +11.6 +2.1 52 +10 +10 1025.0 1024.5
06 19.08 С 1 4000 м н/о +7.8 +3.3 73 +8 +8 1025.0 1024.5

 

Местоположение метеостанции Гисборн (Новая Зеландия): широта -38.65 долгота 177.98 высота над уровнем моря 5 м.

В архиве по умолчанию представлена погода в Гисборне за последнюю неделю. Архивные данные за месяц целиком и за предыдущие месяцы, начиная с января 2011 года, Вы можете получить, выбрав интересующий диапазон дат из раскрывающегося списка и нажав кнопку "Ввод!".


*Определитесь, кто Вы:
робот инопланетянин человек

Внимание! Время в таблицах - всемирное. Для получения местного времени необходимо прибавить поправку, которая равна 12 ч.

Смотрите также архив погоды в соседних городах и на ближайших метеорологических станциях:

Погода в Хикс-Бей (Новая Зеландия) (126 км)
Погода в Нейпире (Новая Зеландия) (132 км)
Погода на Таупо (Новая Зеландия) (167 км)
Погода в Тауранге (Новая Зеландия) (191 км)
Погода на Уэйауру (Новая Зеландия) (219 км)
Погода в Пальмерстон-Норте (Новая Зеландия) (275 км)
Погода в Тахароа (Новая Зеландия) (290 км)
Погода в Каслпойнт (Новая Зеландия) (292 км)
Погода в Нью-Плимуте (Новая Зеландия) (332 км)
Погода в Окленде (Новая Зеландия) (334 км)

Пояснения к столбцам:

Ветер - указаны скорость ветра в м/с - средняя за 10 мин, порывы в срок и между сроками (в фигурных скобках) и направление, откуда дует ветер: С - северный, СВ - северо-восточный, В - восточный, ЮВ - юго-восточный, Ю - южный, ЮЗ - юго-западный, З - западный, СЗ - северо-западный.
Видимость - горизонтальная дальность видимости в метрах или километрах. При видимости от 1 до 10 км при отсутствии осадков обычно наблюдается дымка, при ухудшении видимости до 1 км и менее - туман. В сухую погоду видимость может ухудшаться дымом, пылью или мглою.
Явления - указаны атмосферные явления, наблюдавшиеся в срок или в последний час перед сроком; фигурными скобками обозначены явления, наблюдавшиеся между сроками (за 1-3 часа до срока); квадратными скобками обозначены град или гололедные отложения с указанием их диаметра в мм.
Облачность - указаны через наклонную черту общая и нижняя облачность в баллах и высота нижней границы облаков в метрах; квадратными скобками обозначены формы облаков: Ci - перистые, Cs - перисто-слоистые, Cc - перисто-кучевые, Ac - высококучевые, As - высокослоистые, Sc - слоисто-кучевые, Ns - слоисто-дождевые, Cu - кучевые, Cb - кучево-дождевые. Подробнее классификацию облаков см. в Атласе облаков (PDF).
T - Температура воздуха - температура, измеренная на высоте 2 м над землей.
Td - Температура точки росы - температура, при понижении до которой содержащийся в воздухе водяной пар достигнет насыщения.
f - Относительная влажность воздуха - влажноcть воздуха, измеренная на высоте 2 м над землей.
Te - Эффективная температура - температура, которую ощущает одетый по сезону человек в тени. Характеристика душности погоды. При расчете учитывается влияние влажности воздуха и скорости ветра на теплоощущения человека.
Tes - Эффективная температура на солнце - температура, которую ощущает человек, с поправкой на солнечный нагрев. Характеристика знойности погоды. Зависит от высоты солнца над горизонтом, облачности и скорости ветра. Ночью, в пасмурную погоду, а также при ветре 12 м/с и более поправка равна нулю.
P - Атмосферное давление - приведенное к уровню моря атмосферное давление.
Po - Атмосферное давление - измеренное на уровне метеостанции атмосферное давление.
Tmin - Минимальная температура - минимум температуры воздуха на высоте 2 м над землей.
Tmax - Максимальная температура - максимум температуры воздуха на высоте 2 м над землей.
R - Количество осадков - Количество выпавших осадков за период времени, мм. При наведении курсора мыши на число - период времени, за который выпало указанное количество осадков.
R24 - Количество осадков - Количество выпавших осадков за 24 часа, мм.
S - Снежный покров - Высота снежного покрова, см. При наведении курсора мыши на число - состояние снежного покрова и степень покрытия местности в баллах.